Regional Weather Roundup
Issued by NWS

Home | Current Version | Previous Version | Text Only | Print | Product List | Glossary Off
Versions: 1 2 3 4 5 6 7 8 9 10 11 12 13 14 15 16 17 18 19 20 21 22 23 24 25 26 27 28 29 30 31 32 33 34 35 36 37 38 39 40 41 42 43 44 45 46 47 48 49 50

000
ASUS45 KTFX 292104
RWRMT
MONTANA HOURLY WEATHER ROUNDUP
NATIONAL WEATHER SERVICE GREAT FALLS MT
304 PM MDT SUN MAR 29 2015

NOTE: "FAIR" INDICATES FEW OR NO CLOUDS BELOW 12000 FEET WITH NO
SIGNIFICANT WEATHER AND/OR OBSTRUCTIONS TO VISIBILITY.

* THESE STATIONS ARE NOT UNDER NWS QUALITY CONTROL. THEY DO NOT
   REPORT WEATHER SUCH AS PRECIPITATION OR FOG.

MTZ001>007-043-292200-
WEST OF THE DIVIDE
CITY           SKY/WX    TMP DP  RH WIND       PRES   REMARKS
KALISPELL      CLOUDY    55  30  39 SW8       30.14F
MISSOULA       CLOUDY    54  30  40 NW13      30.22F
BUTTE          PTCLDY    54  18  24 N/A       30.16F
MULLAN PASS    PTSUNNY   39  32  76 VRB3      30.20F
* ESSEX        N/A       48  29  48 NE6G11     N/A
* LINCOLN      N/A       53  21  29 SW8G22     N/A
* LOOKOUT PASS N/A       47  33  58 SW4G9      N/A
* POLSON       N/A       54  30  40 S2G10      N/A
* SEELEY LAKE  N/A       52  26  36 W9G18      N/A
* THOMP F APT  PTCLDY    49  14  24 S7G16      N/A
$$

MTZ008-052>055-292200-
SOUTHWEST MONTANA
CITY           SKY/WX    TMP DP  RH WIND       PRES   REMARKS
BOZEMAN        PTSUNNY   55  19  24 N5        30.16F
DILLON         PTCLDY    61  14  16 SW14G24   30.15F
* W YELLOWSTON PTSUNNY   49  17  28 SW5G13     N/A
* BOULDER HILL N/A       52  18  26 S16G22     N/A
* HOMESTAKE PS N/A       51  16  25 W13G22     N/A
* MONIDA PASS  N/A       49  14  24 SE19G24    N/A
* RAYNOLDS PAS N/A       49  34  56 S8G16      N/A
* WHITEHALL    N/A       62  18  18 SW16G26    N/A
* WISE RIVER   N/A       54  17  23 NW14G22    N/A
$$

MTZ009>010-012-014-046-048-049-054-292200-
EAST SLOPES AND CENTRAL MONTANA
CITY           SKY/WX    TMP DP  RH WIND       PRES   REMARKS
CUT BANK       PTSUNNY   57  28  33 SW39G54   29.98F
GREAT FALLS    PTSUNNY   59  21  23 SW26G36   30.05F
HELENA         PTCLDY    57  21  25 VRB7      30.14F
* DEARBORN     N/A       55  20  25 S15G24     N/A
* EAST GLACIER N/A       47  29  50 W23G29     N/A
* MONARCH      N/A       50  16  26 SW15G28    N/A
* PENDROY      N/A       52  29  41 SW13       N/A
* ROGERS PASS  N/A       48  21  34 E13G27     N/A
* SAINT MARY   N/A       46  30  54 S12G27     N/A
$$

MTZ011-013-016-021-035-040-045-047-050-051-292200-
NORTH CENTRAL MONTANA
CITY           SKY/WX    TMP DP  RH WIND       PRES   REMARKS
HAVRE          CLOUDY    63  30  29 W21G30    29.97F
LEWISTOWN      CLOUDY    55  25  31 W12       30.06F
* N BAR RANCH  SUNNY     54  23  30 W12G18    30.08F
* CHESTER      N/A       57  26  30 W17G28     N/A
* DENTON       N/A       59  25  27 W17G22     N/A
* GEYSER       N/A       58  19  22 W17G30     N/A
* JUDITH GAP   N/A       55  19  24 SW20       N/A
* LOMA         N/A       58  24  27 SW22G32    N/A
$$

MTZ017>020-022>027-061-062-292200-
NORTHEAST MONTANA
CITY           SKY/WX    TMP DP  RH WIND       PRES   REMARKS
GLASGOW        PTCLDY    61  30  31 W18G30    29.98F
GLENDIVE       PTCLDY    61  30  31 W15G22    30.03F
JORDAN         CLOUDY    63  30  29 W22       30.02F
SIDNEY         SUNNY     61  27  27 SW12G24   30.01F
WOLF POINT     PTCLDY    63  34  34 W14G25    29.99F
* BEAVER HILL  N/A       59  26  28 SW18G26    N/A
* CIRCLE       N/A       59  34  39 SW11G18    N/A
* LINDSAY DVD  N/A       58  31  36 W17G26     N/A
* NAVAJO       N/A       57  33  40 W19G24     N/A
* SACO         N/A       61  31  32 SW17G26    N/A
$$

MTZ028>042-056>058-292200-
SOUTHCENTRAL AND SOUTHEAST MONTANA
CITY           SKY/WX    TMP DP  RH WIND       PRES   REMARKS
BAKER          PTCLDY    61  34  36 NW16G26   30.06F
BILLINGS       CLOUDY    61  16  17 SW17G26   30.09F
LIVINGSTON     PTSUNNY   61  14  16 W22G31    30.11F
MILES CITY     PTSUNNY   63  30  29 W13G24    30.06F
* ALZADA       N/A       60  26  27 SW11G17    N/A
* HYSHAM       N/A       59  20  22 W16G29     N/A
* LAME DEER    N/A       53  22  30 W15G22     N/A
* REED POINT   N/A       61  25  25 W17G23     N/A
* ROSCOE HILL  N/A       56  15  20 E6G12      N/A
$$

REGIONAL REPORTS...DAKOTAS
CITY           SKY/WX    TMP DP  RH WIND       PRES   REMARKS
WILLISTON      PTSUNNY   61  32  34 W16G24    29.99F
DICKINSON      SUNNY     59  28  31 NW17      30.01F
CROSBY         SUNNY     57  30  36 NW21G28   29.96F
WATFORD CITY   PTCLDY    55  28  35 W15       29.98F
BISMARCK       SUNNY     59  27  29 NW16G26   30.00F
GRAND FORKS    PTSUNNY   55  28  35 NW25G31   29.86F
FARGO          PTCLDY    57  27  32 NW28G38   29.89R
BUFFALO SD     SUNNY     61  28  29 NW24G33   30.00F
RAPID CITY     SUNNY     63  25  24 N16G24    30.08F
$$

REGIONAL REPORTS...WYOMING/IDAHO/WASHINGTON
CITY           SKY/WX    TMP DP  RH WIND       PRES   REMARKS
GILLETTE       PTSUNNY   61  25  25 VRB7      30.10F
SHERIDAN       PTSUNNY   59  27  29 N8        30.12S
CODY           CLOUDY    63  14  15 NW5       30.13F
YELLOWSTONE LA PTSUNNY   45   7  21 W9G23     30.28S
SALMON         SUNNY     55  25  31 N6        30.18F
MULLAN PASS    PTSUNNY   39  32  76 VRB3      30.20S
SAND POINT     CLOUDY    55  37  51 SW6       30.18F
SPOKANE        PTSUNNY   57  37  47 SW13G22   30.19F

$$



USA.gov is the U.S. government's official web portal to all federal, state and local government web resources and services.